This is the latest recevied weather packets stored in our database for station/object W4CAT-13. If no packets are shown the sender has not sent any weather packets the latest 10 day(s).
| Time | Temp. | Humidity | Pressure | Rain* | Wind** | Luminosity | Snow |
|---|---|---|---|---|---|---|---|
| 1777861204 | 15.56° C | 43% | 978.7 hPa | 0 mm | - | - | - |
| 1777860274 | 15.56° C | 43% | 978.7 hPa | 0 mm | - | - | - |
| 1777859344 | 15.56° C | 43% | 978 hPa | 0 mm | - | - | - |
| 1777858415 | 15.56° C | 43% | 978 hPa | 0 mm | - | - | - |
| 1777857484 | 15.56° C | 43% | 978 hPa | 0 mm | - | - | - |
| 1777856554 | 15.56° C | 43% | 978 hPa | 0 mm | - | - | - |
| 1777855654 | 16.11° C | 43% | 977.6 hPa | 0 mm | - | - | - |
| 1777854724 | 16.11° C | 43% | 977.9 hPa | 0 mm | - | - | - |
| 1777853794 | 16.67° C | 42% | 978 hPa | 0 mm | - | - | - |
| 1777852864 | 16.67° C | 40% | 978 hPa | 0 mm | - | - | - |
| 1777851934 | 17.22° C | 39% | 978.3 hPa | 0 mm | - | - | - |
| 1777851004 | 17.78° C | 38% | 978.7 hPa | 0 mm | - | - | - |
| 1777850074 | 17.78° C | 37% | 978.7 hPa | 0 mm | - | - | - |
| 1777849144 | 17.78° C | 37% | 979 hPa | 0 mm | - | - | - |
| 1777848214 | 17.78° C | 35% | 979.3 hPa | 0 mm | - | - | - |
| 1777847314 | 18.33° C | 38% | 979.3 hPa | 0 mm | - | - | - |
| 1777846413 | 18.33° C | 36% | 979.3 hPa | 0 mm | - | - | - |
| 1777845484 | 18.89° C | 37% | 979.7 hPa | 0 mm | - | - | - |
| 1777844554 | 18.33° C | 35% | 980 hPa | 0 mm | - | - | - |
| 1777843624 | 18.33° C | 37% | 980 hPa | 0 mm | - | - | - |
| 1777842694 | 18.33° C | 35% | 980.4 hPa | 0 mm | - | - | - |
| 1777841764 | 18.89° C | 34% | 980.4 hPa | 0 mm | - | - | - |
| 1777840834 | 18.33° C | 37% | 981 hPa | 0 mm | - | - | - |
| 1777839903 | 17.78° C | 36% | 981 hPa | 0 mm | - | - | - |
| 1777838973 | 18.33° C | 35% | 981.4 hPa | 0 mm | - | - | - |
* Rain latest hour (hover to see other rain measurements)
** Current wind speed in m/s (hover to see current wind gust speed)